owner,sensor,date,latitude,longitude,air_temperature,qcFlag 
COMPS,ioos:station:USF.COMPS:ANC:1,2010-02-01T00:00:00Z,28.1930,-82.7890,9.6,1111122 
COMPS,ioos:station:USF.COMPS:ANC:1,2010-02-01T00:06:00Z,28.1930,-82.7890,9.57,1111122 
COMPS,ioos:station:USF.COMPS:ANC:1,2010-02-01T00:12:00Z,28.1930,-82.7890,9.45,1111122 
COMPS,ioos:station:USF.COMPS:ANC:1,2010-02-01T00:18:00Z,28.1930,-82.7890,9.44,1111122 
COMPS,ioos:station:USF.COMPS:ANC:1,2010-02-01T00:24:00Z,28.1930,-82.7890,9.52,1111122 
COMPS,ioos:station:USF.COMPS:ANC:1,2010-02-01T00:30:00Z,28.1930,-82.7890,9.32,1111122 
COMPS,ioos:station:USF.COMPS:ANC:1,2010-02-01T00:36:00Z,28.1930,-82.7890,9.3,1111122 
COMPS,ioos:station:USF.COMPS:ANC:1,2010-02-01T00:42:00Z,28.1930,-82.7890,9.31,1111122 
COMPS,ioos:station:USF.COMPS:ANC:1,2010-02-01T00:48:00Z,28.1930,-82.7890,9.19,1111122 
COMPS,ioos:station:USF.COMPS:ANC:1,2010-02-01T00:54:00Z,28.1930,-82.7890,9.07,1111122 
COMPS,ioos:station:USF.COMPS:ANC:1,2010-02-01T01:00:00Z,28.1930,-82.7890,9.04,1111122 
COMPS,ioos:station:USF.COMPS:ANC:1,2010-02-01T01:06:00Z,28.1930,-82.7890,9.04,1111122 
COMPS,ioos:station:USF.COMPS:ANC:1,2010-02-01T01:12:00Z,28.1930,-82.7890,8.95,1111122 
COMPS,ioos:station:USF.COMPS:ANC:1,2010-02-01T01:18:00Z,28.1930,-82.7890,8.84,1111122 
COMPS,ioos:station:USF.COMPS:ANC:1,2010-02-01T01:24:00Z,28.1930,-82.7890,8.94,1111122 
COMPS,ioos:station:USF.COMPS:ANC:1,2010-02-01T01:30:00Z,28.1930,-82.7890,8.67,1111122 
COMPS,ioos:station:USF.COMPS:ANC:1,2010-02-01T01:36:00Z,28.1930,-82.7890,8.64,1111122 
COMPS,ioos:station:USF.COMPS:ANC:1,2010-02-01T01:42:00Z,28.1930,-82.7890,8.5,1111122 
COMPS,ioos:station:USF.COMPS:ANC:1,2010-02-01T01:48:00Z,28.1930,-82.7890,8.5,1111122 
COMPS,ioos:station:USF.COMPS:ANC:1,2010-02-01T01:54:00Z,28.1930,-82.7890,8.44,1111122 
COMPS,ioos:station:USF.COMPS:ANC:1,2010-02-01T02:00:00Z,28.1930,-82.7890,8.4,1111122 
COMPS,ioos:station:USF.COMPS:ANC:1,2010-02-01T02:06:00Z,28.1930,-82.7890,8.36,1111122 
COMPS,ioos:station:USF.COMPS:ANC:1,2010-02-01T02:12:00Z,28.1930,-82.7890,8.26,1111122 
COMPS,ioos:station:USF.COMPS:ANC:1,2010-02-01T02:18:00Z,28.1930,-82.7890,8.24,1111122 
COMPS,ioos:station:USF.COMPS:ANC:1,2010-02-01T02:24:00Z,28.1930,-82.7890,8.47,1111122 
COMPS,ioos:station:USF.COMPS:ANC:1,2010-02-01T02:30:00Z,28.1930,-82.7890,8.24,1111122 
COMPS,ioos:station:USF.COMPS:ANC:1,2010-02-01T02:36:00Z,28.1930,-82.7890,8.24,1111122 
COMPS,ioos:station:USF.COMPS:ANC:1,2010-02-01T02:42:00Z,28.1930,-82.7890,8.25,1111122 
COMPS,ioos:station:USF.COMPS:ANC:1,2010-02-01T02:48:00Z,28.1930,-82.7890,8.23,1111122 
COMPS,ioos:station:USF.COMPS:ANC:1,2010-02-01T02:54:00Z,28.1930,-82.7890,8.17,1111122 
COMPS,ioos:station:USF.COMPS:ANC:1,2010-02-01T03:00:00Z,28.1930,-82.7890,8.13,1111122 
COMPS,ioos:station:USF.COMPS:ANC:1,2010-02-01T03:06:00Z,28.1930,-82.7890,8.1,1111122 
COMPS,ioos:station:USF.COMPS:ANC:1,2010-02-01T03:12:00Z,28.1930,-82.7890,8.14,1111122 
COMPS,ioos:station:USF.COMPS:ANC:1,2010-02-01T03:18:00Z,28.1930,-82.7890,8.06,1111122 
COMPS,ioos:station:USF.COMPS:ANC:1,2010-02-01T03:24:00Z,28.1930,-82.7890,8.18,1111122 
COMPS,ioos:station:USF.COMPS:ANC:1,2010-02-01T03:30:00Z,28.1930,-82.7890,7.95,1111122 
COMPS,ioos:station:USF.COMPS:ANC:1,2010-02-01T03:36:00Z,28.1930,-82.7890,7.93,1111122 
COMPS,ioos:station:USF.COMPS:ANC:1,2010-02-01T03:42:00Z,28.1930,-82.7890,7.99,1111122 
COMPS,ioos:station:USF.COMPS:ANC:1,2010-02-01T03:48:00Z,28.1930,-82.7890,7.86,1111122 
COMPS,ioos:station:USF.COMPS:ANC:1,2010-02-01T03:54:00Z,28.1930,-82.7890,7.83,1111122 
COMPS,ioos:station:USF.COMPS:ANC:1,2010-02-01T04:00:00Z,28.1930,-82.7890,7.83,1111122 
COMPS,ioos:station:USF.COMPS:ANC:1,2010-02-01T04:06:00Z,28.1930,-82.7890,7.89,1111122 
COMPS,ioos:station:USF.COMPS:ANC:1,2010-02-01T04:12:00Z,28.1930,-82.7890,7.91,1111122 
COMPS,ioos:station:USF.COMPS:ANC:1,2010-02-01T04:18:00Z,28.1930,-82.7890,7.93,1111122 
COMPS,ioos:station:USF.COMPS:ANC:1,2010-02-01T04:24:00Z,28.1930,-82.7890,8.17,1111122 
COMPS,ioos:station:USF.COMPS:ANC:1,2010-02-01T04:30:00Z,28.1930,-82.7890,7.92,1111122 
COMPS,ioos:station:USF.COMPS:ANC:1,2010-02-01T04:36:00Z,28.1930,-82.7890,7.95,1111122 
COMPS,ioos:station:USF.COMPS:ANC:1,2010-02-01T04:42:00Z,28.1930,-82.7890,7.93,1111122 
COMPS,ioos:station:USF.COMPS:ANC:1,2010-02-01T04:48:00Z,28.1930,-82.7890,7.88,1111122 
COMPS,ioos:station:USF.COMPS:ANC:1,2010-02-01T04:54:00Z,28.1930,-82.7890,7.83,1111122 
COMPS,ioos:station:USF.COMPS:ANC:1,2010-02-01T05:00:00Z,28.1930,-82.7890,7.84,1111122 
COMPS,ioos:station:USF.COMPS:ANC:1,2010-02-01T05:06:00Z,28.1930,-82.7890,7.86,1111122 
COMPS,ioos:station:USF.COMPS:ANC:1,2010-02-01T05:12:00Z,28.1930,-82.7890,7.89,1111122 
COMPS,ioos:station:USF.COMPS:ANC:1,2010-02-01T05:18:00Z,28.1930,-82.7890,7.91,1111122 
COMPS,ioos:station:USF.COMPS:ANC:1,2010-02-01T05:24:00Z,28.1930,-82.7890,8.06,1111122 
COMPS,ioos:station:USF.COMPS:ANC:1,2010-02-01T05:30:00Z,28.1930,-82.7890,7.96,1111122 
COMPS,ioos:station:USF.COMPS:ANC:1,2010-02-01T05:36:00Z,28.1930,-82.7890,7.99,1111122 
COMPS,ioos:station:USF.COMPS:ANC:1,2010-02-01T05:42:00Z,28.1930,-82.7890,7.97,1111122 
COMPS,ioos:station:USF.COMPS:ANC:1,2010-02-01T05:48:00Z,28.1930,-82.7890,8.0,1111122 
COMPS,ioos:station:USF.COMPS:ANC:1,2010-02-01T05:54:00Z,28.1930,-82.7890,7.99,1111122 
COMPS,ioos:station:USF.COMPS:ANC:1,2010-02-01T06:00:00Z,28.1930,-82.7890,8.0,1111122 
COMPS,ioos:station:USF.COMPS:ANC:1,2010-02-01T06:06:00Z,28.1930,-82.7890,8.02,1111122 
COMPS,ioos:station:USF.COMPS:ANC:1,2010-02-01T06:12:00Z,28.1930,-82.7890,8.22,1111122 
COMPS,ioos:station:USF.COMPS:ANC:1,2010-02-01T06:18:00Z,28.1930,-82.7890,8.09,1111122 
COMPS,ioos:station:USF.COMPS:ANC:1,2010-02-01T06:24:00Z,28.1930,-82.7890,8.09,1111122 
COMPS,ioos:station:USF.COMPS:ANC:1,2010-02-01T06:30:00Z,28.1930,-82.7890,7.95,1111122 
COMPS,ioos:station:USF.COMPS:ANC:1,2010-02-01T06:36:00Z,28.1930,-82.7890,8.05,1111122 
COMPS,ioos:station:USF.COMPS:ANC:1,2010-02-01T06:42:00Z,28.1930,-82.7890,8.11,1111122 
COMPS,ioos:station:USF.COMPS:ANC:1,2010-02-01T06:48:00Z,28.1930,-82.7890,8.05,1111122 
COMPS,ioos:station:USF.COMPS:ANC:1,2010-02-01T06:54:00Z,28.1930,-82.7890,8.1,1111122 
COMPS,ioos:station:USF.COMPS:ANC:1,2010-02-01T07:00:00Z,28.1930,-82.7890,8.2,1111122 
COMPS,ioos:station:USF.COMPS:ANC:1,2010-02-01T07:06:00Z,28.1930,-82.7890,8.32,1111122 
COMPS,ioos:station:USF.COMPS:ANC:1,2010-02-01T07:12:00Z,28.1930,-82.7890,8.29,1111122 
COMPS,ioos:station:USF.COMPS:ANC:1,2010-02-01T07:18:00Z,28.1930,-82.7890,8.34,1111122 
COMPS,ioos:station:USF.COMPS:ANC:1,2010-02-01T07:24:00Z,28.1930,-82.7890,8.41,1111122 
COMPS,ioos:station:USF.COMPS:ANC:1,2010-02-01T07:30:00Z,28.1930,-82.7890,8.31,1111122 
COMPS,ioos:station:USF.COMPS:ANC:1,2010-02-01T07:36:00Z,28.1930,-82.7890,8.36,1111122 
COMPS,ioos:station:USF.COMPS:ANC:1,2010-02-01T07:42:00Z,28.1930,-82.7890,8.51,1111122 
COMPS,ioos:station:USF.COMPS:ANC:1,2010-02-01T07:48:00Z,28.1930,-82.7890,8.47,1111122 
COMPS,ioos:station:USF.COMPS:ANC:1,2010-02-01T07:54:00Z,28.1930,-82.7890,8.54,1111122 
COMPS,ioos:station:USF.COMPS:ANC:1,2010-02-01T08:00:00Z,28.1930,-82.7890,8.62,1111122 
COMPS,ioos:station:USF.COMPS:ANC:1,2010-02-01T08:06:00Z,28.1930,-82.7890,8.65,1111122 
COMPS,ioos:station:USF.COMPS:ANC:1,2010-02-01T08:12:00Z,28.1930,-82.7890,8.74,1111122 
COMPS,ioos:station:USF.COMPS:ANC:1,2010-02-01T08:18:00Z,28.1930,-82.7890,8.81,1111122 
COMPS,ioos:station:USF.COMPS:ANC:1,2010-02-01T08:24:00Z,28.1930,-82.7890,9.0,1111122 
COMPS,ioos:station:USF.COMPS:ANC:1,2010-02-01T08:30:00Z,28.1930,-82.7890,8.95,1111122 
COMPS,ioos:station:USF.COMPS:ANC:1,2010-02-01T08:36:00Z,28.1930,-82.7890,9.0,1111122 
COMPS,ioos:station:USF.COMPS:ANC:1,2010-02-01T08:42:00Z,28.1930,-82.7890,8.99,1111122 
COMPS,ioos:station:USF.COMPS:ANC:1,2010-02-01T08:48:00Z,28.1930,-82.7890,9.08,1111122 
COMPS,ioos:station:USF.COMPS:ANC:1,2010-02-01T08:54:00Z,28.1930,-82.7890,9.1,1111122 
COMPS,ioos:station:USF.COMPS:ANC:1,2010-02-01T09:00:00Z,28.1930,-82.7890,9.14,1111122 
COMPS,ioos:station:USF.COMPS:ANC:1,2010-02-01T09:06:00Z,28.1930,-82.7890,9.15,1111122 
COMPS,ioos:station:USF.COMPS:ANC:1,2010-02-01T09:12:00Z,28.1930,-82.7890,9.19,1111122 
COMPS,ioos:station:USF.COMPS:ANC:1,2010-02-01T09:18:00Z,28.1930,-82.7890,9.24,1111122 
COMPS,ioos:station:USF.COMPS:ANC:1,2010-02-01T09:24:00Z,28.1930,-82.7890,9.4,1111122 
COMPS,ioos:station:USF.COMPS:ANC:1,2010-02-01T09:30:00Z,28.1930,-82.7890,9.24,1111122 
COMPS,ioos:station:USF.COMPS:ANC:1,2010-02-01T09:36:00Z,28.1930,-82.7890,9.33,1111122 
COMPS,ioos:station:USF.COMPS:ANC:1,2010-02-01T09:42:00Z,28.1930,-82.7890,9.38,1111122 
COMPS,ioos:station:USF.COMPS:ANC:1,2010-02-01T09:48:00Z,28.1930,-82.7890,9.48,1111122 
COMPS,ioos:station:USF.COMPS:ANC:1,2010-02-01T09:54:00Z,28.1930,-82.7890,9.48,1111122 
COMPS,ioos:station:USF.COMPS:ANC:1,2010-02-01T10:00:00Z,28.1930,-82.7890,9.52,1111122 
COMPS,ioos:station:USF.COMPS:ANC:1,2010-02-01T10:06:00Z,28.1930,-82.7890,9.59,1111122 
COMPS,ioos:station:USF.COMPS:ANC:1,2010-02-01T10:12:00Z,28.1930,-82.7890,9.7,1111122 
COMPS,ioos:station:USF.COMPS:ANC:1,2010-02-01T10:18:00Z,28.1930,-82.7890,9.78,1111122 
COMPS,ioos:station:USF.COMPS:ANC:1,2010-02-01T10:24:00Z,28.1930,-82.7890,10.01,1111122 
COMPS,ioos:station:USF.COMPS:ANC:1,2010-02-01T10:30:00Z,28.1930,-82.7890,9.99,1111122 
COMPS,ioos:station:USF.COMPS:ANC:1,2010-02-01T10:36:00Z,28.1930,-82.7890,10.07,1111122 
COMPS,ioos:station:USF.COMPS:ANC:1,2010-02-01T10:42:00Z,28.1930,-82.7890,10.13,1111122 
COMPS,ioos:station:USF.COMPS:ANC:1,2010-02-01T10:48:00Z,28.1930,-82.7890,10.13,1111122 
COMPS,ioos:station:USF.COMPS:ANC:1,2010-02-01T10:54:00Z,28.1930,-82.7890,10.24,1111122 
COMPS,ioos:station:USF.COMPS:ANC:1,2010-02-01T11:00:00Z,28.1930,-82.7890,10.32,1111122 
COMPS,ioos:station:USF.COMPS:ANC:1,2010-02-01T11:06:00Z,28.1930,-82.7890,10.42,1111122 
COMPS,ioos:station:USF.COMPS:ANC:1,2010-02-01T11:12:00Z,28.1930,-82.7890,10.41,1111122 
COMPS,ioos:station:USF.COMPS:ANC:1,2010-02-01T11:18:00Z,28.1930,-82.7890,10.47,1111122 
COMPS,ioos:station:USF.COMPS:ANC:1,2010-02-01T11:24:00Z,28.1930,-82.7890,10.7,1111122 
COMPS,ioos:station:USF.COMPS:ANC:1,2010-02-01T11:30:00Z,28.1930,-82.7890,10.76,1111122 
COMPS,ioos:station:USF.COMPS:ANC:1,2010-02-01T11:36:00Z,28.1930,-82.7890,10.87,1111122 
COMPS,ioos:station:USF.COMPS:ANC:1,2010-02-01T11:42:00Z,28.1930,-82.7890,10.98,1111122 
COMPS,ioos:station:USF.COMPS:ANC:1,2010-02-01T11:48:00Z,28.1930,-82.7890,11.09,1111122 
COMPS,ioos:station:USF.COMPS:ANC:1,2010-02-01T11:54:00Z,28.1930,-82.7890,11.28,1111122 
COMPS,ioos:station:USF.COMPS:ANC:1,2010-02-01T12:00:00Z,28.1930,-82.7890,11.37,1111122 
COMPS,ioos:station:USF.COMPS:ANC:1,2010-02-01T12:06:00Z,28.1930,-82.7890,11.49,1111122 
COMPS,ioos:station:USF.COMPS:ANC:1,2010-02-01T12:12:00Z,28.1930,-82.7890,11.61,1111122 
COMPS,ioos:station:USF.COMPS:ANC:1,2010-02-01T12:18:00Z,28.1930,-82.7890,11.69,1111122 
COMPS,ioos:station:USF.COMPS:ANC:1,2010-02-01T12:24:00Z,28.1930,-82.7890,11.85,1111122 
COMPS,ioos:station:USF.COMPS:ANC:1,2010-02-01T12:30:00Z,28.1930,-82.7890,11.83,1111122 
COMPS,ioos:station:USF.COMPS:ANC:1,2010-02-01T12:36:00Z,28.1930,-82.7890,11.87,1111122 
COMPS,ioos:station:USF.COMPS:ANC:1,2010-02-01T12:42:00Z,28.1930,-82.7890,11.92,1111122 
COMPS,ioos:station:USF.COMPS:ANC:1,2010-02-01T12:48:00Z,28.1930,-82.7890,12.01,1111122 
COMPS,ioos:station:USF.COMPS:ANC:1,2010-02-01T12:54:00Z,28.1930,-82.7890,12.01,1111122 
COMPS,ioos:station:USF.COMPS:ANC:1,2010-02-01T13:00:00Z,28.1930,-82.7890,12.1,1111122 
COMPS,ioos:station:USF.COMPS:ANC:1,2010-02-01T13:06:00Z,28.1930,-82.7890,12.2,1111122 
COMPS,ioos:station:USF.COMPS:ANC:1,2010-02-01T13:12:00Z,28.1930,-82.7890,12.29,1111122 
COMPS,ioos:station:USF.COMPS:ANC:1,2010-02-01T13:18:00Z,28.1930,-82.7890,12.38,1111122 
COMPS,ioos:station:USF.COMPS:ANC:1,2010-02-01T13:24:00Z,28.1930,-82.7890,12.53,1111122 
COMPS,ioos:station:USF.COMPS:ANC:1,2010-02-01T13:30:00Z,28.1930,-82.7890,12.55,1111122 
COMPS,ioos:station:USF.COMPS:ANC:1,2010-02-01T13:36:00Z,28.1930,-82.7890,12.68,1111122 
COMPS,ioos:station:USF.COMPS:ANC:1,2010-02-01T13:42:00Z,28.1930,-82.7890,12.68,1111122 
COMPS,ioos:station:USF.COMPS:ANC:1,2010-02-01T13:48:00Z,28.1930,-82.7890,12.67,1111122 
COMPS,ioos:station:USF.COMPS:ANC:1,2010-02-01T13:54:00Z,28.1930,-82.7890,12.68,1111122 
COMPS,ioos:station:USF.COMPS:ANC:1,2010-02-01T14:00:00Z,28.1930,-82.7890,12.77,1111122 
COMPS,ioos:station:USF.COMPS:ANC:1,2010-02-01T14:06:00Z,28.1930,-82.7890,12.83,1111122 
COMPS,ioos:station:USF.COMPS:ANC:1,2010-02-01T14:12:00Z,28.1930,-82.7890,12.88,1111122 
COMPS,ioos:station:USF.COMPS:ANC:1,2010-02-01T14:18:00Z,28.1930,-82.7890,12.96,1111122 
COMPS,ioos:station:USF.COMPS:ANC:1,2010-02-01T14:24:00Z,28.1930,-82.7890,13.2,1111122 
COMPS,ioos:station:USF.COMPS:ANC:1,2010-02-01T14:30:00Z,28.1930,-82.7890,13.2,1111122 
COMPS,ioos:station:USF.COMPS:ANC:1,2010-02-01T14:36:00Z,28.1930,-82.7890,13.22,1111122 
COMPS,ioos:station:USF.COMPS:ANC:1,2010-02-01T14:42:00Z,28.1930,-82.7890,13.25,1111122 
COMPS,ioos:station:USF.COMPS:ANC:1,2010-02-01T14:48:00Z,28.1930,-82.7890,13.36,1111122 
COMPS,ioos:station:USF.COMPS:ANC:1,2010-02-01T14:54:00Z,28.1930,-82.7890,13.23,1111122 
COMPS,ioos:station:USF.COMPS:ANC:1,2010-02-01T15:00:00Z,28.1930,-82.7890,13.03,1111122 
COMPS,ioos:station:USF.COMPS:ANC:1,2010-02-01T15:06:00Z,28.1930,-82.7890,13.02,1111122 
COMPS,ioos:station:USF.COMPS:ANC:1,2010-02-01T15:12:00Z,28.1930,-82.7890,12.95,1111122 
COMPS,ioos:station:USF.COMPS:ANC:1,2010-02-01T15:18:00Z,28.1930,-82.7890,12.95,1111122 
COMPS,ioos:station:USF.COMPS:ANC:1,2010-02-01T15:24:00Z,28.1930,-82.7890,13.06,1111122 
COMPS,ioos:station:USF.COMPS:ANC:1,2010-02-01T15:30:00Z,28.1930,-82.7890,13.07,1111122 
COMPS,ioos:station:USF.COMPS:ANC:1,2010-02-01T15:36:00Z,28.1930,-82.7890,13.08,1111122 
COMPS,ioos:station:USF.COMPS:ANC:1,2010-02-01T15:42:00Z,28.1930,-82.7890,13.14,1111122 
COMPS,ioos:station:USF.COMPS:ANC:1,2010-02-01T15:48:00Z,28.1930,-82.7890,13.11,1111122 
COMPS,ioos:station:USF.COMPS:ANC:1,2010-02-01T15:54:00Z,28.1930,-82.7890,13.11,1111122 
COMPS,ioos:station:USF.COMPS:ANC:1,2010-02-01T16:00:00Z,28.1930,-82.7890,13.16,1111122 
COMPS,ioos:station:USF.COMPS:ANC:1,2010-02-01T16:06:00Z,28.1930,-82.7890,13.29,1111122 
COMPS,ioos:station:USF.COMPS:ANC:1,2010-02-01T16:12:00Z,28.1930,-82.7890,13.35,1111122 
COMPS,ioos:station:USF.COMPS:ANC:1,2010-02-01T16:18:00Z,28.1930,-82.7890,13.36,1111122 
COMPS,ioos:station:USF.COMPS:ANC:1,2010-02-01T16:24:00Z,28.1930,-82.7890,13.59,1111122 
COMPS,ioos:station:USF.COMPS:ANC:1,2010-02-01T16:30:00Z,28.1930,-82.7890,13.58,1111122 
COMPS,ioos:station:USF.COMPS:ANC:1,2010-02-01T16:36:00Z,28.1930,-82.7890,13.61,1111122 
COMPS,ioos:station:USF.COMPS:ANC:1,2010-02-01T16:42:00Z,28.1930,-82.7890,13.65,1111122 
COMPS,ioos:station:USF.COMPS:ANC:1,2010-02-01T16:48:00Z,28.1930,-82.7890,13.77,1111122 
COMPS,ioos:station:USF.COMPS:ANC:1,2010-02-01T16:54:00Z,28.1930,-82.7890,13.89,1111122 
COMPS,ioos:station:USF.COMPS:ANC:1,2010-02-01T17:00:00Z,28.1930,-82.7890,14.03,1111122 
COMPS,ioos:station:USF.COMPS:ANC:1,2010-02-01T17:06:00Z,28.1930,-82.7890,14.04,1111122 
COMPS,ioos:station:USF.COMPS:ANC:1,2010-02-01T17:12:00Z,28.1930,-82.7890,14.09,1111122 
COMPS,ioos:station:USF.COMPS:ANC:1,2010-02-01T17:18:00Z,28.1930,-82.7890,14.23,1111122 
COMPS,ioos:station:USF.COMPS:ANC:1,2010-02-01T17:24:00Z,28.1930,-82.7890,14.49,1111122 
COMPS,ioos:station:USF.COMPS:ANC:1,2010-02-01T17:30:00Z,28.1930,-82.7890,14.49,1111122 
COMPS,ioos:station:USF.COMPS:ANC:1,2010-02-01T17:36:00Z,28.1930,-82.7890,14.64,1111122 
COMPS,ioos:station:USF.COMPS:ANC:1,2010-02-01T17:42:00Z,28.1930,-82.7890,14.72,1111122 
COMPS,ioos:station:USF.COMPS:ANC:1,2010-02-01T17:48:00Z,28.1930,-82.7890,14.83,1111122 
COMPS,ioos:station:USF.COMPS:ANC:1,2010-02-01T17:54:00Z,28.1930,-82.7890,14.84,1111122 
COMPS,ioos:station:USF.COMPS:ANC:1,2010-02-01T18:00:00Z,28.1930,-82.7890,14.84,1111122 
COMPS,ioos:station:USF.COMPS:ANC:1,2010-02-01T18:06:00Z,28.1930,-82.7890,14.84,1111122 
COMPS,ioos:station:USF.COMPS:ANC:1,2010-02-01T18:12:00Z,28.1930,-82.7890,14.84,1111122 
COMPS,ioos:station:USF.COMPS:ANC:1,2010-02-01T18:18:00Z,28.1930,-82.7890,14.84,1111122 
COMPS,ioos:station:USF.COMPS:ANC:1,2010-02-01T18:24:00Z,28.1930,-82.7890,14.93,1111122 
COMPS,ioos:station:USF.COMPS:ANC:1,2010-02-01T18:30:00Z,28.1930,-82.7890,14.84,1111122 
COMPS,ioos:station:USF.COMPS:ANC:1,2010-02-01T18:36:00Z,28.1930,-82.7890,14.83,1111122 
COMPS,ioos:station:USF.COMPS:ANC:1,2010-02-01T18:42:00Z,28.1930,-82.7890,14.84,1111122 
COMPS,ioos:station:USF.COMPS:ANC:1,2010-02-01T18:48:00Z,28.1930,-82.7890,14.84,1111122 
COMPS,ioos:station:USF.COMPS:ANC:1,2010-02-01T18:54:00Z,28.1930,-82.7890,14.84,1111122 
COMPS,ioos:station:USF.COMPS:ANC:1,2010-02-01T19:00:00Z,28.1930,-82.7890,14.89,1111122 
COMPS,ioos:station:USF.COMPS:ANC:1,2010-02-01T19:06:00Z,28.1930,-82.7890,15.1,1111122 
COMPS,ioos:station:USF.COMPS:ANC:1,2010-02-01T19:12:00Z,28.1930,-82.7890,15.13,1111122 
COMPS,ioos:station:USF.COMPS:ANC:1,2010-02-01T19:18:00Z,28.1930,-82.7890,15.12,1111122 
COMPS,ioos:station:USF.COMPS:ANC:1,2010-02-01T19:24:00Z,28.1930,-82.7890,15.21,1111122 
COMPS,ioos:station:USF.COMPS:ANC:1,2010-02-01T19:30:00Z,28.1930,-82.7890,15.21,1111122 
COMPS,ioos:station:USF.COMPS:ANC:1,2010-02-01T19:36:00Z,28.1930,-82.7890,15.24,1111122 
COMPS,ioos:station:USF.COMPS:ANC:1,2010-02-01T19:42:00Z,28.1930,-82.7890,15.24,1111122 
COMPS,ioos:station:USF.COMPS:ANC:1,2010-02-01T19:48:00Z,28.1930,-82.7890,15.27,1111122 
COMPS,ioos:station:USF.COMPS:ANC:1,2010-02-01T19:54:00Z,28.1930,-82.7890,15.25,1111122 
COMPS,ioos:station:USF.COMPS:ANC:1,2010-02-01T20:00:00Z,28.1930,-82.7890,15.27,1111122 
COMPS,ioos:station:USF.COMPS:ANC:1,2010-02-01T20:06:00Z,28.1930,-82.7890,15.27,1111122 
COMPS,ioos:station:USF.COMPS:ANC:1,2010-02-01T20:12:00Z,28.1930,-82.7890,15.35,1111122 
COMPS,ioos:station:USF.COMPS:ANC:1,2010-02-01T20:18:00Z,28.1930,-82.7890,15.38,1111122 
COMPS,ioos:station:USF.COMPS:ANC:1,2010-02-01T20:24:00Z,28.1930,-82.7890,15.5,1111122 
COMPS,ioos:station:USF.COMPS:ANC:1,2010-02-01T20:30:00Z,28.1930,-82.7890,15.4,1111122 
COMPS,ioos:station:USF.COMPS:ANC:1,2010-02-01T20:36:00Z,28.1930,-82.7890,15.49,1111122 
COMPS,ioos:station:USF.COMPS:ANC:1,2010-02-01T20:42:00Z,28.1930,-82.7890,15.51,1111122 
COMPS,ioos:station:USF.COMPS:ANC:1,2010-02-01T20:48:00Z,28.1930,-82.7890,15.51,1111122 
COMPS,ioos:station:USF.COMPS:ANC:1,2010-02-01T20:54:00Z,28.1930,-82.7890,15.51,1111122 
COMPS,ioos:station:USF.COMPS:ANC:1,2010-02-01T21:00:00Z,28.1930,-82.7890,15.56,1111122 
COMPS,ioos:station:USF.COMPS:ANC:1,2010-02-01T21:06:00Z,28.1930,-82.7890,15.64,1111122 
COMPS,ioos:station:USF.COMPS:ANC:1,2010-02-01T21:12:00Z,28.1930,-82.7890,15.65,1111122 
COMPS,ioos:station:USF.COMPS:ANC:1,2010-02-01T21:18:00Z,28.1930,-82.7890,15.65,1111122 
COMPS,ioos:station:USF.COMPS:ANC:1,2010-02-01T21:24:00Z,28.1930,-82.7890,15.76,1111122 
COMPS,ioos:station:USF.COMPS:ANC:1,2010-02-01T21:30:00Z,28.1930,-82.7890,15.65,1111122 
COMPS,ioos:station:USF.COMPS:ANC:1,2010-02-01T21:36:00Z,28.1930,-82.7890,15.74,1111122 
COMPS,ioos:station:USF.COMPS:ANC:1,2010-02-01T21:42:00Z,28.1930,-82.7890,15.78,1111122 
COMPS,ioos:station:USF.COMPS:ANC:1,2010-02-01T21:48:00Z,28.1930,-82.7890,15.79,1111122 
COMPS,ioos:station:USF.COMPS:ANC:1,2010-02-01T21:54:00Z,28.1930,-82.7890,15.87,1111122 
COMPS,ioos:station:USF.COMPS:ANC:1,2010-02-01T22:00:00Z,28.1930,-82.7890,15.93,1111122 
COMPS,ioos:station:USF.COMPS:ANC:1,2010-02-01T22:06:00Z,28.1930,-82.7890,15.95,1111122 
COMPS,ioos:station:USF.COMPS:ANC:1,2010-02-01T22:12:00Z,28.1930,-82.7890,15.92,1111122 
COMPS,ioos:station:USF.COMPS:ANC:1,2010-02-01T22:18:00Z,28.1930,-82.7890,15.94,1111122 
COMPS,ioos:station:USF.COMPS:ANC:1,2010-02-01T22:24:00Z,28.1930,-82.7890,16.31,1111122 
COMPS,ioos:station:USF.COMPS:ANC:1,2010-02-01T22:30:00Z,28.1930,-82.7890,16.05,1111122 
COMPS,ioos:station:USF.COMPS:ANC:1,2010-02-01T22:36:00Z,28.1930,-82.7890,16.05,1111122 
COMPS,ioos:station:USF.COMPS:ANC:1,2010-02-01T22:42:00Z,28.1930,-82.7890,16.06,1111122 
COMPS,ioos:station:USF.COMPS:ANC:1,2010-02-01T22:48:00Z,28.1930,-82.7890,16.13,1111122 
COMPS,ioos:station:USF.COMPS:ANC:1,2010-02-01T22:54:00Z,28.1930,-82.7890,16.19,1111122 
COMPS,ioos:station:USF.COMPS:ANC:1,2010-02-01T23:00:00Z,28.1930,-82.7890,16.19,1111122 
COMPS,ioos:station:USF.COMPS:ANC:1,2010-02-01T23:06:00Z,28.1930,-82.7890,16.19,1111122 
COMPS,ioos:station:USF.COMPS:ANC:1,2010-02-01T23:12:00Z,28.1930,-82.7890,16.26,1111122 
COMPS,ioos:station:USF.COMPS:ANC:1,2010-02-01T23:18:00Z,28.1930,-82.7890,16.32,1111122 
COMPS,ioos:station:USF.COMPS:ANC:1,2010-02-01T23:24:00Z,28.1930,-82.7890,16.77,1111122 
COMPS,ioos:station:USF.COMPS:ANC:1,2010-02-01T23:30:00Z,28.1930,-82.7890,16.32,1111122 
COMPS,ioos:station:USF.COMPS:ANC:1,2010-02-01T23:36:00Z,28.1930,-82.7890,16.33,1111122 
COMPS,ioos:station:USF.COMPS:ANC:1,2010-02-01T23:42:00Z,28.1930,-82.7890,16.42,1111122 
COMPS,ioos:station:USF.COMPS:ANC:1,2010-02-01T23:48:00Z,28.1930,-82.7890,16.46,1111122 
COMPS,ioos:station:USF.COMPS:ANC:1,2010-02-01T23:54:00Z,28.1930,-82.7890,16.46,1111122 
COMPS,ioos:station:USF.COMPS:ANC:1,2010-02-02T00:00:00Z,28.1930,-82.7890,16.46,1111122 
COMPS,ioos:station:USF.COMPS:ANC:1,2010-02-02T00:06:00Z,28.1930,-82.7890,16.46,1111122 
COMPS,ioos:station:USF.COMPS:ANC:1,2010-02-02T00:12:00Z,28.1930,-82.7890,16.55,1111122 
COMPS,ioos:station:USF.COMPS:ANC:1,2010-02-02T00:18:00Z,28.1930,-82.7890,16.46,1111122 
COMPS,ioos:station:USF.COMPS:ANC:1,2010-02-02T00:24:00Z,28.1930,-82.7890,16.81,1111122 
COMPS,ioos:station:USF.COMPS:ANC:1,2010-02-02T00:30:00Z,28.1930,-82.7890,16.59,1111122 
COMPS,ioos:station:USF.COMPS:ANC:1,2010-02-02T00:36:00Z,28.1930,-82.7890,16.6,1111122 
COMPS,ioos:station:USF.COMPS:ANC:1,2010-02-02T00:42:00Z,28.1930,-82.7890,16.59,1111122 
COMPS,ioos:station:USF.COMPS:ANC:1,2010-02-02T00:48:00Z,28.1930,-82.7890,16.59,1111122 
COMPS,ioos:station:USF.COMPS:ANC:1,2010-02-02T00:54:00Z,28.1930,-82.7890,16.59,1111122 
COMPS,ioos:station:USF.COMPS:ANC:1,2010-02-02T01:00:00Z,28.1930,-82.7890,16.69,1111122 
COMPS,ioos:station:USF.COMPS:ANC:1,2010-02-02T01:06:00Z,28.1930,-82.7890,16.64,1111122 
COMPS,ioos:station:USF.COMPS:ANC:1,2010-02-02T01:12:00Z,28.1930,-82.7890,16.59,1111122 
COMPS,ioos:station:USF.COMPS:ANC:1,2010-02-02T01:18:00Z,28.1930,-82.7890,16.59,1111122 
COMPS,ioos:station:USF.COMPS:ANC:1,2010-02-02T01:24:00Z,28.1930,-82.7890,17.08,1111122 
COMPS,ioos:station:USF.COMPS:ANC:1,2010-02-02T01:30:00Z,28.1930,-82.7890,16.67,1111122 
COMPS,ioos:station:USF.COMPS:ANC:1,2010-02-02T01:36:00Z,28.1930,-82.7890,16.59,1111122 
COMPS,ioos:station:USF.COMPS:ANC:1,2010-02-02T01:42:00Z,28.1930,-82.7890,16.61,1111122 
COMPS,ioos:station:USF.COMPS:ANC:1,2010-02-02T01:48:00Z,28.1930,-82.7890,16.69,1111122 
COMPS,ioos:station:USF.COMPS:ANC:1,2010-02-02T01:54:00Z,28.1930,-82.7890,16.73,1111122 
COMPS,ioos:station:USF.COMPS:ANC:1,2010-02-02T02:00:00Z,28.1930,-82.7890,16.73,1111122 
COMPS,ioos:station:USF.COMPS:ANC:1,2010-02-02T02:06:00Z,28.1930,-82.7890,16.73,1111122 
COMPS,ioos:station:USF.COMPS:ANC:1,2010-02-02T02:12:00Z,28.1930,-82.7890,16.73,1111122 
COMPS,ioos:station:USF.COMPS:ANC:1,2010-02-02T02:18:00Z,28.1930,-82.7890,16.86,1111122 
COMPS,ioos:station:USF.COMPS:ANC:1,2010-02-02T02:24:00Z,28.1930,-82.7890,17.05,1111122 
COMPS,ioos:station:USF.COMPS:ANC:1,2010-02-02T02:30:00Z,28.1930,-82.7890,16.77,1111122 
COMPS,ioos:station:USF.COMPS:ANC:1,2010-02-02T02:36:00Z,28.1930,-82.7890,16.78,1111122 
COMPS,ioos:station:USF.COMPS:ANC:1,2010-02-02T02:42:00Z,28.1930,-82.7890,16.86,1111122 
COMPS,ioos:station:USF.COMPS:ANC:1,2010-02-02T02:48:00Z,28.1930,-82.7890,16.86,1111122 
COMPS,ioos:station:USF.COMPS:ANC:1,2010-02-02T02:54:00Z,28.1930,-82.7890,16.86,1111122 
COMPS,ioos:station:USF.COMPS:ANC:1,2010-02-02T03:00:00Z,28.1930,-82.7890,16.86,1111122 
COMPS,ioos:station:USF.COMPS:ANC:1,2010-02-02T03:06:00Z,28.1930,-82.7890,16.93,1111122 
COMPS,ioos:station:USF.COMPS:ANC:1,2010-02-02T03:12:00Z,28.1930,-82.7890,16.94,1111122 